Temp
7 7 7 7 7 7 7 7 6 7 6 6 6 6 6 6 6 6 6 6 6 7 7 7 7 7 7 8 10 16 16 16 16 16 15 15 15 15 15 15 15 15 16 17 18 18 18
7 7 7 7 7 7 7 6 7 7 6 6 6 6 6 6 6 6 6 6 7 9 9 8 6 7 7 8 14 15 16 16 16 16 16 15 16 15 16 16 15 17 17 17 17 18 18
6 7 7 7 7 7 7 7 7 7 6 6 6 6 6 5 5 5 6 8 9 10 10 10 7 7 8 9 15 15 14 15 16 16 16 17 17 17 17 16 17 17 16 17 17 17 17
6 7 7 7 7 7 7 7 7 7 6 6 6 6 5 6 6 6 7 9 10 10 11 10 7 7 9 12 13 14 15 15 16 15 16 18 18 17 17 16 17 17 17 16 18 17 18
7 6 7 7 7 7 7 7 6 6 6 6 6 5 5 5 6 6 8 10 10 10 10 8 7 8 9 13 12 16 15 16 17 16 17 18 17 16 17 16 14 15 15 15 17 19 19
7 6 6 6 6 6 6 6 6 6 6 5 5 5 5 6 6 7 9 11 11 9 9 9 8 8 12 15 15 15 16 15 17 17 16 16 14 14 13 14 13 14 15 14 15 19 18
6 6 6 6 6 6 6 6 6 5 5 5 5 5 5 5 6 7 9 9 6 8 7 9 10 11 12 14 15 15 15 16 16 16 14 14 13 13 13 13 15 15 15 14 16 17 18
6 6 6 6 6 6 6 6 6 5 5 5 5 5 5 5 6 7 8 7 6 5 5 8 9 9 11 12 11 13 15 15 15 14 13 13 12 14 14 14 14 14 14 14 15 17 17
5 6 6 6 5 5 5 5 5 5 5 5 5 5 5 5 6 6 5 5 5 5 6 9 11 12 12 12 11 12 13 14 14 13 13 12 14 15 14 14 13 14 13 14 15 16 17
5 5 5 5 5 5 5 5 4 4 4 5 5 5 5 5 6 5 6 6 7 5 6 10 12 13 12 13 10 13 14 15 14 13 13 12 14 14 14 13 13 13 15 15 16 15 14
4 4 4 4 4 4 4 4 4 4 4 4 4 4 4 5 5 4 5 6 7 6 10 15 14 15 13 12 15 14 15 15 13 13 13 13 13 13 13 13 14 14 15 15 16 15 15
4 4 4 4 4 4 4 4 4 4 4 3 4 4 4 5 5 6 5 7 7 7 10 13 15 15 14 15 15 15 15 16 14 14 13 13 14 13 13 14 14 15 15 15 15 14 13
4 4 3 3 3 3 3 3 3 4 3 3 4 5 4 4 4 5 5 5 6 7 11 12 12 13 13 14 15 15 14 13 12 12 12 13 13 13 14 14 15 14 14 13 13 13 14
3 3 3 3 3 4 4 3 3 3 3 3 4 5 5 5 4 4 5 5 7 10 10 11 11 11 12 14 14 14 13 12 12 13 12 12 13 12 13 14 13 12 14 12 14 14 14
3 3 3 3 3 3 3 3 3 3 3 3 4 5 5 5 5 5 2 1 8 8 9 8 10 11 11 12 12 13 12 12 12 12 13 12 13 14 13 15 15 13 13 13 13 13 13
3 3 3 3 3 3 3 3 3 3 3 3 4 3 4 4 4 5 1 5 5 8 8 9 8 10 10 11 11 11 13 14 14 12 13 14 13 15 14 14 13 14 13 13 12 14 14
3 3 3 3 3 3 3 3 3 3 3 3 3 1 4 4 4 1 -1 3 5 7 7 7 8 8 9 10 10 11 13 13 12 14 12 14 14 14 14 13 12 13 13 12 12 14 15
3 3 2 2 2 2 2 2 3 3 3 3 1 -2 4 4 1 1 -0 4 7 6 7 7 7 8 8 9 9 11 12 12 13 13 12 13 12 11 13 15 14 13 12 12 13 14 14
3 3 3 2 2 2 2 2 2 3 3 3 1 1 3 3 -3 -1 4 4 6 6 6 6 7 8 9 8 7 9 10 11 11 12 12 12 11 12 14 14 13 13 14 13 12 11 13
2 3 3 2 2 2 2 2 2 2 3 3 0 -1 -1 1 1 0 1 3 5 5 5 6 6 7 7 7 9 8 8 10 11 11 12 13 11 12 12 12 12 12 13 14 11 13 13
3 3 2 2 2 2 2 2 2 2 2 3 1 1 1 -3 1 3 3 4 4 4 5 6 6 6 6 6 8 7 9 8 10 11 11 11 11 11 11 11 12 12 12 13 13 12 12
2 2 2 2 2 2 2 2 2 2 2 2 1 0 1 1 2 3 3 4 4 4 5 5 4 5 6 6 7 7 8 9 8 12 10 10 10 10 11 12 11 12 13 12 13 14 13
2 2 2 2 2 2 2 2 2 2 2 1 1 1 1 2 2 2 3 4 4 4 5 6 6 5 5 6 6 7 8 7 7 9 9 10 9 9 11 10 10 11 13 12 13 14 13
2 2 2 2 2 2 2 2 3 2 2 2 1 1 -0 0 2 3 3 4 4 4 4 5 6 6 7 7 6 6 7 7 8 9 8 9 9 8 9 10 9 13 13 14 13 14 14
2 2 2 2 2 2 2 2 2 2 2 2 2 1 -0 -2 2 3 3 3 3 3 3 4 6 7 5 5 7 7 7 8 9 9 9 9 8 8 8 8 10 11 13 12 13 13 14
2 2 2 2 2 2 2 2 2 2 2 1 2 2 1 -0 0 3 3 3 2 2 3 4 6 5 5 5 6 7 7 10 9 10 8 7 8 8 7 8 8 11 12 11 12 11 11
2 2 2 2 2 2 2 2 2 2 2 1 2 2 1 1 1 2 2 2 3 2 1 3 3 4 3 5 7 7 7 9 9 10 8 7 7 8 8 7 9 10 9 10 11 10 8
2 2 2 1 1 1 2 2 2 2 2 1 2 2 1 1 2 2 3 2 1 1 -1 1 2 3 3 5 6 6 5 7 8 9 8 8 7 7 8 8 8 7 10 11 9 8 7
2 2 1 1 1 1 1 2 2 2 2 2 1 2 1 1 0 1 2 3 3 4 2 2 2 4 3 4 5 6 6 4 6 7 7 7 8 8 9 9 7 7 6 7 9 8 6
Height
807 807 808 809 809 811 809 809 807 806 805 802 801 799 797 793 789 785 782 779 774 770 770 768 765 766 763 762 745 734 736 737 737 735 735 737 742 744 750 747 745 746 740 735 733 734 734
806 805 805 805 807 808 808 808 807 804 803 802 801 797 796 792 787 781 778 774 770 766 763 763 762 763 766 761 733 732 732 734 734 734 733 735 736 735 739 743 744 735 734 733 730 730 730
806 804 805 806 804 806 806 805 805 803 803 800 798 796 794 791 786 779 773 768 764 761 758 755 757 759 760 743 730 730 730 730 731 732 731 732 731 734 736 739 732 732 734 728 727 726 728
803 805 804 805 804 805 806 804 803 803 801 799 798 796 792 788 784 776 770 763 759 754 752 749 751 757 749 730 729 727 726 726 726 729 730 729 730 732 734 732 730 733 731 738 720 721 720
801 802 803 803 803 800 803 802 802 800 798 797 797 794 792 785 780 773 766 760 754 752 750 749 752 754 743 730 728 724 725 725 724 724 727 727 730 733 734 739 746 742 742 739 730 714 713
801 802 802 803 803 801 801 802 800 799 798 798 795 792 789 782 777 771 763 755 752 752 753 753 753 756 734 728 725 725 724 724 724 724 727 729 735 737 743 744 750 745 741 739 735 717 714
798 800 802 801 800 801 801 800 799 798 796 797 794 790 785 780 775 769 761 755 760 758 757 755 746 741 733 727 725 724 724 723 724 727 733 733 740 740 738 740 734 735 738 738 729 718 718
794 798 799 800 799 799 799 799 799 798 796 794 794 788 784 780 774 770 767 769 782 785 766 746 735 734 728 728 731 722 724 727 728 735 735 739 738 732 732 735 738 738 740 737 726 717 716
793 794 795 797 798 799 797 796 798 798 796 793 791 788 784 779 774 773 772 776 777 776 771 735 727 723 719 723 726 718 722 722 727 735 736 740 730 726 729 733 736 735 737 736 729 719 711
792 793 795 796 797 797 795 796 798 796 794 793 790 788 785 778 778 777 776 773 772 773 772 738 723 718 719 719 725 713 714 716 724 728 734 735 726 726 729 733 731 736 725 723 721 724 730
789 791 793 795 796 795 795 796 796 794 792 791 789 789 786 782 782 780 779 773 770 773 766 719 718 716 717 721 711 713 712 712 722 725 730 729 727 728 730 728 725 727 718 719 716 721 718
787 790 792 793 793 794 795 796 795 793 791 789 789 787 786 784 784 781 776 772 770 780 761 729 717 719 719 714 712 713 713 713 716 722 727 726 721 724 724 720 721 719 720 717 717 721 725
787 789 790 790 792 794 794 795 794 792 791 789 787 786 783 783 783 781 776 772 785 782 741 735 732 729 727 716 712 713 717 720 727 732 733 725 720 717 717 723 718 721 727 730 728 726 718
787 788 789 789 791 793 792 793 794 790 789 788 785 784 782 783 780 780 778 783 783 757 754 742 742 733 727 718 714 713 719 725 722 724 732 731 722 718 714 717 720 724 722 730 718 720 711
784 787 788 790 791 791 791 793 792 790 790 788 785 781 781 781 780 780 786 811 771 768 764 762 748 738 733 728 729 720 720 720 718 720 728 731 722 710 710 710 715 721 724 721 722 718 715
782 787 787 789 788 792 790 790 789 791 789 788 785 783 782 781 782 783 798 788 782 771 769 764 762 745 744 738 733 733 718 712 712 715 713 716 723 708 710 712 718 716 721 722 725 713 709
783 785 785 788 788 790 789 788 789 790 789 789 787 788 785 783 785 792 813 793 781 773 773 773 766 762 752 746 740 736 720 716 716 711 715 714 715 716 712 714 719 720 719 724 720 712 705
780 781 784 787 788 786 788 787 789 789 790 789 789 802 787 788 799 800 807 788 779 777 773 775 767 762 760 751 747 738 728 724 715 713 719 717 722 726 714 701 703 709 714 716 714 707 706
777 780 783 784 783 785 787 787 788 789 789 790 793 793 789 790 821 807 789 786 780 777 774 774 767 760 756 758 759 744 735 728 724 721 719 719 727 720 706 708 709 712 709 711 718 720 704
775 777 780 782 782 785 787 787 787 789 790 791 795 803 797 792 796 802 800 789 781 775 775 770 766 763 761 758 747 749 745 738 730 726 714 710 720 716 718 720 719 717 709 709 722 709 706
774 775 777 778 781 784 786 785 786 788 790 792 795 798 797 813 799 792 791 786 784 779 775 770 765 765 764 760 747 750 738 740 731 725 715 714 719 720 718 718 718 715 711 707 708 711 709
771 771 773 777 779 782 782 784 786 787 789 792 794 798 796 796 793 793 791 786 783 782 777 772 773 770 764 759 751 749 746 738 741 721 717 722 729 726 722 715 718 713 706 707 700 697 698
767 769 772 775 777 779 780 782 784 786 788 790 792 794 795 795 793 796 792 785 784 781 771 767 764 765 761 754 751 748 744 744 743 734 728 723 728 730 721 724 723 714 702 702 697 690 693
764 767 769 771 774 776 778 779 781 783 785 787 789 792 796 799 792 790 787 786 784 781 779 767 766 762 754 751 748 741 740 738 736 728 728 729 728 732 732 723 737 703 696 694 694 691 687
761 763 765 768 770 773 775 776 779 781 782 785 788 791 794 802 790 788 786 785 782 777 775 768 760 756 754 751 743 739 739 730 723 723 724 725 730 737 739 737 722 707 697 702 695 693 686
757 759 762 764 766 769 771 773 775 777 780 782 785 788 791 795 793 783 783 782 785 781 775 767 757 752 751 744 734 730 731 718 721 717 720 726 728 735 743 736 743 708 701 702 697 703 699
752 755 757 760 762 764 767 769 771 773 776 779 782 785 789 789 784 782 784 784 780 782 783 771 764 756 754 740 728 728 727 719 720 715 729 733 737 735 737 744 726 709 711 702 709 711 707
747 750 753 756 758 760 763 765 767 770 773 775 777 781 786 786 781 780 778 779 781 781 788 777 772 766 760 747 740 736 742 729 725 719 725 725 735 739 730 732 732 719 706 704 715 715 711
743 746 748 751 753 756 758 760 763 765 768 772 774 777 782 784 780 777 775 772 774 774 776 776 775 770 767 761 753 745 741 746 742 733 725 736 726 725 725 721 725 726 727 725 714 716 720
Wind_Speed
7 5 4 3 3 6 6 8 9 10 13 13 14 16 17 18 21 24 28 33 30 26 25 23 19 16 7 3 10 5 8 7 1 8 8 5 5 5 4 4 3 7 4 5 5 7 7
7 5 4 3 4 5 7 9 10 11 12 14 16 17 19 21 24 26 29 34 31 27 25 26 17 8 3 5 3 3 5 8 6 8 6 6 6 6 4 5 5 4 6 13 11 14 10
6 5 4 5 4 6 9 9 9 11 13 14 15 17 19 22 27 29 33 32 28 28 29 22 14 8 7 16 4 10 15 12 8 6 4 7 5 3 3 4 5 5 8 8 7 5 8
5 5 2 3 4 6 7 8 9 10 13 14 17 18 20 25 30 34 36 29 28 24 16 13 8 9 8 10 12 12 8 7 12 12 9 7 5 2 3 4 6 4 3 5 4 8 7
7 5 4 6 7 6 7 8 9 11 15 16 15 17 21 25 31 37 32 28 19 5 10 9 8 5 9 8 5 5 6 3 3 5 8 3 5 4 1 0 4 2 8 7 5 6 6
6 6 4 5 5 4 5 7 8 11 13 14 14 17 21 25 29 33 27 22 4 3 4 2 5 2 6 1 3 6 4 4 1 2 3 3 2 3 2 3 7 4 5 6 4 3 1
7 6 6 5 4 5 6 6 7 9 11 13 16 19 21 24 29 21 23 6 6 3 7 6 11 6 17 11 9 3 3 6 2 2 3 1 3 7 9 7 5 4 7 11 4 7 5
7 7 6 5 4 4 6 6 7 8 10 13 18 20 22 24 25 18 17 6 7 7 12 15 22 21 28 16 6 6 1 3 3 4 2 1 6 7 5 5 7 8 9 11 6 9 10
6 5 4 3 3 4 5 6 7 7 10 13 17 20 21 26 10 19 5 10 20 16 5 10 5 6 4 14 7 6 8 5 4 6 5 5 3 4 3 4 7 9 11 7 9 10 10
6 4 3 2 2 3 4 5 5 7 10 13 16 17 20 25 4 20 3 26 24 5 3 7 4 4 3 3 5 7 9 5 4 7 5 5 3 3 0 4 5 8 7 11 9 7 5
6 4 3 1 2 3 4 4 5 7 10 13 14 14 16 16 8 6 14 26 22 2 6 2 1 5 5 3 3 1 4 3 7 5 5 5 3 3 3 4 5 6 3 6 5 5 3
6 4 2 1 3 3 4 4 6 8 9 11 12 11 13 12 13 8 22 21 3 5 6 7 2 3 2 3 3 2 2 2 3 4 2 6 2 5 6 4 5 5 4 6 4 2 6
5 4 2 1 1 3 3 4 4 7 9 10 10 12 13 11 6 17 20 5 4 3 6 7 5 7 4 5 3 5 4 5 4 2 3 3 8 4 4 3 3 2 2 2 3 3 4
6 4 1 1 2 2 2 2 4 7 10 10 11 13 13 13 13 8 6 4 3 1 5 5 7 10 2 8 4 4 4 3 4 3 1 2 5 6 5 10 5 6 7 3 3 3 2
5 2 1 2 1 1 1 3 6 8 10 10 11 10 8 6 5 2 4 3 3 2 6 9 10 4 5 6 6 5 5 4 7 9 6 3 4 2 5 3 6 1 7 4 4 3 2
4 2 1 3 2 3 3 4 5 6 8 10 7 6 6 9 5 3 4 3 3 4 8 3 3 4 4 9 8 9 3 2 2 7 4 3 3 2 2 5 4 2 2 2 3 3 4
6 2 3 4 3 2 2 2 3 4 7 6 4 3 9 7 3 4 2 4 4 7 7 4 5 6 6 6 5 4 5 2 5 2 6 2 2 3 5 5 7 4 2 1 3 3 3
9 3 3 3 3 2 2 2 3 2 5 3 2 3 3 4 2 1 1 3 3 5 9 5 5 6 7 6 3 3 6 7 3 2 1 4 2 3 8 4 7 3 5 5 3 2 3
11 6 5 5 3 2 2 2 2 1 2 4 2 2 3 2 2 2 2 3 5 4 6 3 4 3 7 6 5 2 7 13 16 3 4 7 3 2 2 3 6 4 1 2 3 1 3
8 5 7 6 4 4 3 3 2 0 1 4 2 2 3 2 2 3 3 3 4 1 4 6 8 5 8 5 8 4 2 6 11 15 1 4 2 2 2 3 2 4 8 6 2 2 2
10 8 9 6 6 6 5 3 2 2 3 5 1 2 2 2 1 1 3 3 6 5 2 5 3 2 5 3 5 6 7 5 9 18 3 3 2 2 3 3 1 4 8 11 8 9 4
12 11 8 9 9 7 6 5 5 4 6 3 2 2 0 1 2 2 4 3 5 4 3 6 4 11 9 5 6 4 5 3 7 6 7 4 2 0 3 2 6 5 10 9 11 12 10
11 10 11 11 9 9 9 9 7 7 10 3 4 1 2 1 0 1 2 3 4 9 7 8 11 14 8 9 6 12 7 9 11 6 3 1 4 2 2 4 7 6 4 5 5 5 6
13 15 13 12 11 9 9 8 10 10 12 7 5 2 2 1 3 3 4 6 9 8 9 16 11 8 2 10 13 8 9 11 12 10 4 2 3 2 2 3 1 5 10 4 1 4 10
16 15 12 12 12 12 11 11 10 11 12 12 8 4 2 2 3 5 9 7 7 9 4 6 6 5 7 7 3 4 2 3 5 7 7 4 3 2 2 2 5 8 3 4 3 9 3
16 14 14 14 14 14 14 13 13 13 12 17 14 11 2 2 4 7 4 3 3 4 5 4 7 8 6 3 4 5 4 3 3 3 6 5 4 2 1 2 4 5 4 9 5 5 7
17 16 18 12 11 11 12 13 13 12 11 17 8 19 3 2 4 3 3 3 2 2 3 4 8 7 4 3 2 1 2 1 2 3 3 3 2 5 4 3 6 4 8 6 1 4 7
18 17 14 13 13 14 14 14 14 14 13 17 15 19 12 2 5 4 3 4 1 1 2 4 5 3 3 3 3 3 2 3 2 1 3 4 4 3 3 3 7 9 5 0 1 6 10
19 17 15 16 16 16 16 16 17 17 17 18 8 19 25 2 4 4 13 21 17 8 1 3 3 2 2 3 3 3 2 3 4 2 2 1 3 3 5 2 4 6 6 8 7 8 10
Wind_Direction
212 227 242 262 291 305 316 318 321 328 332 333 329 330 330 328 327 326 322 321 317 314 308 307 308 312 334 340 250 219 252 284 312 169 168 153 151 154 187 205 259 233 235 247 229 244 241
226 224 235 247 278 295 313 317 315 323 325 330 328 328 327 328 327 325 322 320 321 315 309 304 296 291 236 284 236 250 284 290 239 193 175 178 207 198 202 231 195 260 266 254 254 250 250
229 236 250 255 262 298 312 322 319 322 322 323 324 327 328 329 328 327 324 323 319 315 308 295 270 208 236 249 250 268 295 269 231 209 177 214 185 150 170 277 250 255 291 275 237 219 222
227 251 237 263 294 316 324 320 322 322 328 327 323 325 327 331 332 333 328 321 320 317 311 287 203 177 247 264 299 285 294 257 228 224 229 225 203 186 178 295 331 308 275 282 260 195 222
220 217 251 269 283 290 296 304 314 323 325 325 321 325 327 333 335 336 327 322 326 355 16 109 130 187 265 308 262 291 270 289 178 186 208 217 149 189 181 151 339 282 262 272 306 226 213
226 250 266 282 288 298 312 319 323 328 334 336 332 330 329 333 336 336 332 328 21 69 39 13 112 266 264 326 341 316 323 286 230 120 138 143 87 164 92 136 236 240 250 255 256 269 173
232 244 248 272 283 296 308 313 308 319 335 337 339 336 334 336 337 342 353 7 12 357 12 267 262 256 290 284 305 202 3 357 59 72 185 161 170 210 207 213 243 259 274 268 262 288 303
232 244 250 254 281 318 317 313 316 324 329 337 340 341 339 338 341 2 39 68 63 277 300 259 251 252 250 278 295 256 186 166 160 206 125 315 246 222 202 215 233 248 264 272 257 256 259
212 222 238 255 268 306 319 327 320 325 332 338 342 344 341 340 355 4 66 50 343 345 267 299 252 247 236 195 232 244 180 171 169 181 194 195 227 86 167 250 245 245 246 259 268 278 266
227 235 246 247 254 309 346 346 331 337 340 341 346 343 343 347 23 345 25 337 342 340 314 280 275 277 106 139 226 203 200 147 184 194 192 236 263 219 108 271 221 268 225 244 265 269 247
185 188 221 251 304 323 332 335 331 338 338 334 337 340 345 1 331 345 322 330 333 165 342 328 71 167 129 184 256 82 194 56 162 162 139 245 203 183 194 218 183 245 255 306 253 264 276
182 195 213 267 302 299 292 307 329 336 343 346 336 336 338 343 332 332 333 327 348 46 260 322 55 355 317 235 326 136 135 62 147 141 239 241 214 183 209 227 216 274 335 282 291 239 257
212 193 200 258 306 283 295 297 315 338 342 345 341 330 331 321 297 322 328 356 40 159 353 341 344 341 310 255 266 184 157 180 157 134 245 295 238 210 168 229 222 118 268 262 238 212 247
186 171 203 17 289 324 27 35 344 347 347 339 338 333 331 322 316 313 341 51 175 33 287 5 338 316 297 6 289 189 133 220 244 94 87 248 331 163 188 203 193 178 205 216 261 229 287
158 188 237 249 244 27 37 341 354 358 357 346 343 333 343 3 18 103 66 88 226 16 342 339 323 343 327 2 357 348 217 221 199 171 186 190 270 214 183 167 149 195 209 142 308 214 303
158 168 297 237 205 286 294 309 352 355 355 1 351 346 343 346 114 57 72 250 270 3 354 327 302 11 326 343 10 349 261 317 232 203 166 212 280 253 71 86 15 149 13 165 171 259 222
183 197 312 270 252 275 354 338 343 352 354 2 360 39 11 97 75 49 149 247 302 321 344 332 333 321 337 328 348 290 289 340 338 15 178 169 162 278 123 211 181 165 199 210 285 231 309
200 242 285 252 268 285 317 341 342 5 347 45 50 36 171 18 40 147 154 253 305 320 306 311 300 256 247 280 301 293 313 323 304 296 209 347 75 259 239 247 182 145 156 163 248 206 190
209 218 274 246 246 267 281 299 335 358 25 106 86 319 9 167 113 284 262 258 266 265 264 278 284 303 310 325 314 245 346 333 329 320 212 193 209 281 337 50 25 32 338 165 177 267 245
216 243 257 239 246 247 262 281 277 300 143 133 82 355 323 49 137 118 344 297 298 178 287 245 272 267 291 277 235 271 283 310 327 307 295 120 105 133 167 214 230 274 290 275 316 260 328
241 248 218 236 232 239 250 253 261 232 188 164 125 223 191 279 271 292 208 264 294 2 302 289 258 333 314 282 264 206 254 342 294 289 313 96 122 318 263 265 219 264 268 286 251 242 273
233 228 237 232 241 242 249 248 242 229 178 134 159 162 171 259 289 26 352 305 316 329 293 328 321 311 309 257 258 300 350 195 252 295 352 349 135 126 293 8 337 294 294 269 258 241 254
216 229 225 232 230 242 245 246 237 206 175 146 132 237 137 271 146 56 248 273 311 333 297 217 318 312 296 258 281 262 246 266 266 285 241 241 143 147 263 4 327 309 164 318 282 218 221
233 230 235 230 236 241 249 250 231 205 202 170 151 148 97 226 206 225 257 286 298 300 279 287 291 285 281 316 309 259 245 247 244 257 223 187 134 124 222 1 275 256 312 179 238 338 244
228 237 227 229 236 242 242 240 236 227 208 200 175 156 148 221 238 270 267 268 310 297 275 277 292 283 311 278 253 249 253 261 228 227 228 181 121 105 134 191 300 309 30 352 330 297 285
236 235 236 238 240 240 242 240 237 233 217 207 199 204 157 141 241 239 281 285 273 292 310 275 296 314 328 256 222 205 177 171 227 166 26 76 86 106 121 192 241 241 349 350 311 277 355
236 234 241 231 239 242 242 243 237 232 214 202 206 202 180 255 260 216 199 213 228 269 264 305 327 332 26 310 289 113 146 198 194 158 169 109 104 199 215 241 282 320 305 284 82 287 347
233 239 228 235 241 244 241 240 238 233 218 198 210 205 185 213 257 239 229 199 174 202 180 297 348 355 306 319 344 356 17 360 358 261 186 157 154 197 182 213 256 4 345 39 104 45 59
231 232 238 236 245 244 245 248 244 237 230 210 206 212 209 207 241 266 266 255 246 212 126 329 246 34 330 313 350 309 336 12 6 289 332 332 196 185 193 232 57 41 61 6 54 90 79